パンスターズ彗星

C/2017 K2 ( PanSTARRS )

English version
Home page
Updated on May 15, 2024

---------------------------------------------------------------------

・ プロフィール

発見日 2017年5月21日
発見光度 20.8等
発見者 Pan-STARRS 1 telescope (Haleakala)

・ 写真集

・ 軌道要素

Epoch 2024 Mar. 31.0 TT = JDT 2460400.5
T 2022 Dec. 19.60620 TT                                 Rudenko
q   1.7977632            (2000.0)            P               Q
z  -0.0002567      Peri.  236.20745     +0.01788529     +0.04914816
 +/-0.0000001      Node    88.22943     -0.18076238     +0.98249146
e   1.0004615      Incl.   87.58029     -0.98336416     -0.17970806
>From 11090 observations 2013 May 12-2024 Feb. 25, mean residual 0".9.

・ 星図

・ 光度変化

        m1 = 4.0 + 5 logΔ + 7.5 log r          [    ,-100]  (              〜2022年 9月10日)
        m1 = 4.0 + 5 logΔ + 8.5 log r(t + 30)  [-100,    ]  (2022年 9月10日〜              )

---------------------------------------------------------------------

軌道要素はM.P.E.C. 2024-D126に掲載されたものです。
星図はステラナビゲータ Ver.10 (アストロアーツ) で作成したものです。
光度グラフはComet for Windowsで作成したものです。

---------------------------------------------------------------------

Copyright(C) Seiichi Yoshida (comet@aerith.net). All rights reserved.